User: anonymous   Login
Location: Newark
(55.7083°N, 13.1992°E)
Time: 23:48:25
(UTC+00:00)
Language:

Envisat - Orbit

View from above orbital plane
View from above orbital plane
View from above satellite
View from above satellite

Ground track
Ground track

The orbit data is extracted from the following two-line orbital elements,

1 27386U 02009A   22343.38506781  .00000192  00000-0  76749-4 0  9998
2 27386  98.2060 316.4837 0001290  84.6557  88.8926 14.38194606 88607
Epoch (UTC): 09 December 2022 09:14:29
Eccentricity: 0.0001290
inclination: 98.2060°
perigee height: 763 km
apogee height: 765 km
right ascension of ascending node: 316.4837°
argument of perigee: 84.6557°
revolutions per day: 14.38194606
mean anomaly at epoch: 88.8926°
orbit number at epoch: 8860

The dashed part of the orbit path shows where the satellite is in the earth's shadow,  

DLR